Back to catalog

TYVAK-0173

AliveSciencePO
NORAD 48892·PAYLOAD·🇦🇺 Australia

Launched Jun 30, 2021 from Cape Canaveral Space Force Station

Loading…

Next Passes (next 24 hours)

TLE

FreshSource: Space-Track

Epoch: Sep 14, 2026, 02:53 UTC

1 48892U 21059P   26257.12015216  .00001176  00000-0  15175-3 0  9995
2 48892  95.9995 311.3438 0011005  88.5089 271.7390 14.82115030281417

Track TYVAK-0173 in real time with AllMySat

Download on the App Store